This is the latest recevied weather packets stored in our database for station/object W0WFX-2. If no packets are shown the sender has not sent any weather packets the latest 10 day(s).
| Time | Temp. | Humidity | Pressure | Rain* | Wind** | Luminosity | Snow |
|---|---|---|---|---|---|---|---|
| 1787931573 | 28.89° C | 48% | 1021.4 hPa | 0 mm | - | 543 W/m² | - |
| 1787931268 | 28.89° C | 50% | 1021.6 hPa | 0 mm | - | 527 W/m² | - |
| 1787930968 | 28.33° C | 52% | 1021.4 hPa | 0 mm | - | 512 W/m² | - |
| 1787930667 | 28.33° C | 50% | 1021.4 hPa | 0 mm | - | 498 W/m² | - |
| 1787930362 | 27.78° C | 53% | 1021.4 hPa | 0 mm | - | 486 W/m² | - |
| 1787930057 | 27.78° C | 53% | 1021.5 hPa | 0 mm | - | 471 W/m² | - |
| 1787929755 | 27.78° C | 54% | 1021.7 hPa | 0 mm | - | 450 W/m² | - |
| 1787929451 | 27.22° C | 57% | 1021.5 hPa | 0 mm | - | 443 W/m² | - |
| 1787929148 | 26.11° C | 58% | 1021.7 hPa | 0 mm | - | 424 W/m² | - |
| 1787928844 | 25.56° C | 61% | 1021.7 hPa | 0 mm | - | 410 W/m² | - |
| 1787928543 | 24.44° C | 64% | 1021.7 hPa | 0 mm | - | 401 W/m² | - |
| 1787928242 | 24.44° C | 65% | 1021.8 hPa | 0 mm | - | 229 W/m² | - |
| 1787927941 | 24.44° C | 66% | 1022 hPa | 0 mm | - | 82 W/m² | - |
| 1787927636 | 23.89° C | 69% | 1021.7 hPa | 0 mm | - | 76 W/m² | - |
| 1787927330 | 23.33° C | 69% | 1021.7 hPa | 0 mm | - | 104 W/m² | - |
| 1787927027 | 23.33° C | 71% | 1021.9 hPa | 0 mm | - | 79 W/m² | - |
| 1787926726 | 22.78° C | 68% | 1022 hPa | 0 mm | - | 90 W/m² | - |
| 1787926425 | 22.78° C | 73% | 1022 hPa | 0 mm | - | 74 W/m² | - |
| 1787926119 | 22.22° C | 74% | 1022.2 hPa | 0 mm | - | 67 W/m² | - |
| 1787925819 | 22.22° C | 75% | 1022.2 hPa | 0 mm | - | 71 W/m² | - |
| 1787925518 | 22.78° C | 74% | 1022.3 hPa | 0 mm | - | 60 W/m² | - |
| 1787925213 | 22.78° C | 74% | 1022.3 hPa | 0 mm | - | 59 W/m² | - |
| 1787924912 | 22.22° C | 76% | 1022.2 hPa | 0 mm | - | 144 W/m² | - |
| 1787924607 | 21.67° C | 76% | 1021.6 hPa | 0 mm | - | 133 W/m² | - |
| 1787924302 | 21.67° C | 75% | 1021.3 hPa | 0 mm | - | 70 W/m² | - |
* Rain latest hour (hover to see other rain measurements)
** Current wind speed in m/s (hover to see current wind gust speed)